User: anonymous   Login
Location: Wallasey
(53.4265°N, 3.0662°W)
Time: 20:45:27
(UTC+01:00)
Language:

AO-91 - Orbit

View from above orbital plane
View from above orbital plane
View from above satellite
View from above satellite

Ground track
Ground track

The orbit data is extracted from the following two-line orbital elements,

1 43017U 17073E   19237.33942732  .00000253  00000-0  25908-4 0  9996
2 43017  97.7207 156.0509 0256752 298.3418  59.2115 14.78609291 95258
Epoch (UTC): 25 August 2019 08:08:46
Eccentricity: 0.0256752
inclination: 97.7207°
perigee height: 453 km
apogee height: 814 km
right ascension of ascending node: 156.0509°
argument of perigee: 298.3418°
revolutions per day: 14.78609291
mean anomaly at epoch: 59.2115°
orbit number at epoch: 9525

The dashed part of the orbit path shows where the satellite is in the earth's shadow,  

DLR